Regional Weather Roundup
Issued by NWS Charleston, WV

Home | Current Version | Previous Version | Text Only | Print | Product List | Glossary On
Versions: 1 2 3 4 5 6 7 8 9 10 11 12 13 14 15 16 17 18 19 20 21 22 23 24 25 26 27 28 29 30 31 32 33 34 35 36 37 38 39 40 41 42 43 44 45 46 47 48 49 50
763
ASUS41 KRLX 241110
RWRRLX
West Virginia Regional Weather Roundup
National Weather Service Charleston WV
700 AM EDT TUE MAY 24 2016

Note: "fair" indicates few or no clouds below 12,000 feet with no
significant weather and/or obstructions to visibility.

WVZ003-241200-
Northern Panhandle of West Virginia

CITY           SKY/WX    TMP DP  RH WIND       PRES   REMARKS
WHEELING       FOG       50  48  93 CALM      30.08R VSB<1/4
$$

WVZ009-241200-
Northwest West Virginia

CITY           SKY/WX    TMP DP  RH WIND       PRES   REMARKS
PARKERSBURG      N/A     51  50  96 CALM      30.12R
$$

WVZ006-241200-
Western West Virginia

CITY           SKY/WX    TMP DP  RH WIND       PRES   REMARKS
HUNTINGTON       N/A     52  50  93 CALM      30.10R FOG
$$

WVZ015-241200-
West Central West Virginia

CITY           SKY/WX    TMP DP  RH WIND       PRES   REMARKS
CHARLESTON     FOG       51  50  96 CALM      30.10R VSB 1/2
$$

WVZ022-031-241200-
North Central West Virginia

CITY           SKY/WX    TMP DP  RH WIND       PRES   REMARKS
CLARKSBURG       N/A     49  48  97 SW3       30.09R
MORGANTOWN       N/A     51  47  86 CALM      30.09R
$$

WVZ025-035-042-045-241200-
Southern West Virginia

CITY           SKY/WX    TMP DP  RH WIND       PRES   REMARKS
BECKLEY          N/A     47  45  93 S3        30.14R
LOGAN          FOG       50  50 100 CALM      30.12R VSB<1/4
BLUEFIELD        N/A     49  47  93 W6        30.16R
LEWISBURG      FOG       45  45  99 CALM      30.13R VSB<1/4
$$

WVZ047-241200-
Northern Mountains of West Virginia

CITY           SKY/WX    TMP DP  RH WIND       PRES   REMARKS
ELKINS         FOG       47  45  93 CALM      30.13R VSB 1/4
$$

WVZ052-241200-
Eastern Panhandle of West Virginia

CITY           SKY/WX    TMP DP  RH WIND       PRES   REMARKS
MARTINSBURG      N/A     49  48  97 CALM      30.00R FOG
PETERSBURG       N/A     51  51  99 CALM      30.07R FOG
$$




USA.gov is the U.S. government's official web portal to all federal, state and local government web resources and services.